Championnats du Monde UCI Gran Fondo - Route/Road Race - 27/08/2017

F 50/54

64 participants classés


Retour au Sommaire - Signaler une erreur - Faire défiler





1 2 /fin /tout

page suivante ->

Pl Do. Nom - Surname Prénom - Name S-Cat TEMPS - Time Km/h Pays
1 2661 SVÄRDSTRÖM ANNA F 50/54 02:33:04 38,02 SWEDEN
2 2610 CAPPIELLO OLGA F 50/54 02:33:55 37,81 ITALY
3 2622 FELICI MILENA F 50/54 02:34:08 37,76 ITALY
4 2656 PRATI MARIA CRISTINA F 50/54 02:37:04 37,05 ITALY
5 2626 HANSEN TRINE F 50/54 02:40:41 36,22 NORWAY
6 2653 OSIPOVA MARINA F 50/54 02:42:50 35,74 RUSSIAN FEDERATION
7 2654 PAINE JAYNE F 50/54 02:43:06 35,68 UNITED KINGDOM
8 2609 BORMANN JANNI F 50/54 02:43:17 35,64 DENMARK
9 2638 LIDMILA MONIKA F 50/54 02:43:17 35,64 GERMANY
10 2643 MAIZELS DALE F 50/54 02:43:24 35,62 AUSTRALIA
11 2613 CLARK MEREDITH F 50/54 02:43:25 35,61 AUSTRALIA
12 2652 OLGERS KATE F 50/54 02:43:25 35,61 AUSTRALIA
13 2602 BAINBRIDGE KIMBERLEY F 50/54 02:43:25 35,61 UNITED KINGDOM
14 2623 FLETCHER TRACEY F 50/54 02:43:25 35,61 UNITED KINGDOM
15 2659 SEAL JACQUI F 50/54 02:43:36 35,57 UNITED KINGDOM
16 2629 HEINEMEYER DAWN F 50/54 02:43:59 35,49 CANADA
17 2650 NAON CORINNE F 50/54 02:43:59 35,49 FRANCE
18 2657 ROBY HELEN F 50/54 02:44:13 35,44 UNITED KINGDOM
19 2617 DEBORAH RICHARDS F 50/54 02:45:24 35,19 AUSTRALIA
20 2658 RYDE LOUISE F 50/54 02:46:58 34,86 UNITED KINGDOM
21 2645 MONDI ANNALISA F 50/54 02:50:10 34,20 ITALY
22 2636 LANG TEA F 50/54 02:50:10 34,20 ESTONIA
23 2662 SWAN CAROLYN F 50/54 02:50:12 34,20 UNITED KINGDOM
24 2625 GUSTAVSSON EVA F 50/54 02:50:28 34,14 SWEDEN
25 2663 THOMPSON BRONWEN F 50/54 02:50:40 34,10 AUSTRALIA
26 2620 DURU CLOTHILDE F 50/54 02:50:41 34,10 FRANCE
27 2666 WAELZLEIN DORIS F 50/54 02:54:29 33,35 GERMANY
28 2668 WILLINGER PETRA F 50/54 02:54:29 33,35 AUSTRIA
29 2644 MCDONALD KAREN F 50/54 02:54:29 33,35 UNITED KINGDOM
30 2605 BENNETT KIRSTEN F 50/54 02:54:30 33,35 AUSTRALIA
31 2665 TRUST PETRA F 50/54 02:54:30 33,35 NEW ZEALAND
32 2633 KIRRAGE ALISON F 50/54 02:54:30 33,35 UNITED KINGDOM
33 2660 SHARP CLAIRE F 50/54 02:54:31 33,35 UNITED KINGDOM
34 2624 FORLANO LORI F 50/54 02:54:33 33,34 AUSTRALIA
35 2637 LEDBETTER LESLIE F 50/54 02:54:33 33,34 UNITED STATES
36 2601 ALLEN AYLLIE F 50/54 02:55:25 33,18 AUSTRALIA
37 2616 CRANWELL PATRICIA F 50/54 02:55:27 33,17 UNITED KINGDOM
38 2608 BLUNDELL GILLIAN F 50/54 02:55:27 33,17 UNITED KINGDOM
39 2640 LITTLE ANN F 50/54 02:55:28 33,17 UNITED KINGDOM
40 2651 NICHOLSON VICKI F 50/54 02:57:31 32,78 IRELAND
41 2621 ENGELSMA MARGRIET F 50/54 03:00:36 32,22 NETHERLANDS
42 2611 CHAVANT VALERIE F 50/54 03:00:59 32,16 FRANCE
43 2646 MONKS LORI F 50/54 03:02:51 31,83 UNITED KINGDOM
44 2614 CLEIFE AMANDA F 50/54 03:02:51 31,83 UNITED KINGDOM
45 2667 WHYTOCK JENNIFER F 50/54 03:02:53 31,82 CANADA
46 2631 HOBBS HEATHER F 50/54 03:02:57 31,81 UNITED KINGDOM
47 2647 MOODY LAURA F 50/54 03:02:58 31,81 UNITED KINGDOM
48 2634 KNIGHTS ANN F 50/54 03:02:58 31,81 UNITED KINGDOM
49 2635 LAMBARD HELEN F 50/54 03:02:58 31,81 UNITED KINGDOM
50 2632 KING SARAH F 50/54 03:03:00 31,80 UNITED KINGDOM

Aucun commentaires pour le moment, donnez votre avis, vos impressions avant, pendant! et après la course

Déjà membre? Identifiez-vous pour commenter l'épreuve ou créer un compte